Weather History for Fort Myers, FL

Change the Weather History Date:

Friday, December 21, 2012

  Actual Average Record
Temperature  
Mean Temperature 63 °F 66 °F  
Max Temperature 74 °F 76 °F 87 °F (1990)
Min Temperature 51 °F 55 °F 35 °F (2000)
Degree Days  
Heating Degree Days 2 3  
Month to date heating degree days 2 41  
Since 1 July heating degree days 17 59  
Cooling Degree Days 0 4  
Month to date cooling degree days 141 91  
Year to date cooling degree days 4354 3954  
Growing Degree Days 12 (Base 50)    
Moisture  
Dew Point 48 °F    
Average Humidity 61    
Maximum Humidity 84    
Minimum Humidity 29    
Precipitation  
Precipitation 0.13 in 0.06 in 2.38 in (1994)
Month to date precipitation 2.00 1.09  
Year to date precipitation 49.43 55.31  
Sea Level Pressure  
Sea Level Pressure 30.10 in    
Wind  
Wind Speed 14 mph (NNW)    
Max Wind Speed 24 mph    
Max Gust Speed 31 mph    
Visibility 10 miles    
Events Rain    
T = Trace of Precipitation, MM = Missing Value Source: NWS Daily Summary

Daily Weather History Graph

Daily Weather History Graph

Search for Another Location

Airport:

Trip Planner

Search our weather history database for the weather conditions in past years. The results will help you decide how hot, cold, wet, or windy it might be!

Date:

Astronomy

Dec. 21, 2012 Rise Set
Actual Time 7:11 AM EST 5:40 PM EST
Civil Twilight 6:46 AM EST 6:05 PM EST
Nautical Twilight 6:17 AM EST 6:34 PM EST
Astronomical Twilight 5:48 AM EST 7:02 PM EST
Moon 1:05 PM EST (12/21) 1:20 AM EST (12/21)
Length of Visible Light 11h 19m
Length of Day
10h 28m
Waxing Gibbous, 64% of the Moon is Illuminated
Dec 21
Waxing Gibbous
Dec 28
Full
Jan 4
Last Quarter
Jan 11
New
Jan 18
First Quarter

Hourly Weather History & Observations

Time (EST) Temp. Dew Point Humidity Pressure Visibility Wind Dir Wind Speed Gust Speed Precip Events Conditions
12:53 AM 73.0 °F 66.9 °F 81% 29.99 in 10.0 mi SW 9.2 mph - N/A   Partly Cloudy
1:53 AM 73.0 °F 68.0 °F 84% 29.98 in 10.0 mi SSW 8.1 mph - N/A   Mostly Cloudy
2:53 AM 70.0 °F 68.0 °F 93% 30.00 in 7.0 mi West 16.1 mph 23.0 mph 0.13 in Rain Light Rain
3:08 AM 69.8 °F 66.2 °F 88% 29.99 in 10.0 mi NW 18.4 mph 23.0 mph 0.00 in   Overcast
3:53 AM 68.0 °F 63.0 °F 84% 30.01 in 10.0 mi NW 11.5 mph 19.6 mph 0.00 in   Overcast
4:05 AM 68.0 °F 62.6 °F 83% 30.00 in 10.0 mi NW 11.5 mph - N/A   Overcast
4:53 AM 66.9 °F 59.0 °F 76% 30.01 in 10.0 mi NNW 13.8 mph 23.0 mph N/A   Overcast
5:22 AM 64.4 °F 53.6 °F 68% 30.02 in 10.0 mi NNW 19.6 mph 26.5 mph N/A   Overcast
5:36 AM 64.4 °F 53.6 °F 68% 30.03 in 10.0 mi NNW 13.8 mph - N/A   Scattered Clouds
5:53 AM 63.0 °F 53.1 °F 70% 30.05 in 10.0 mi NNW 15.0 mph - N/A   Clear
6:53 AM 61.0 °F 50.0 °F 67% 30.09 in 10.0 mi NNW 15.0 mph 23.0 mph N/A   Scattered Clouds
7:53 AM 57.9 °F 46.9 °F 67% 30.12 in 10.0 mi North 12.7 mph - N/A   Clear
8:53 AM 59.0 °F 46.0 °F 62% 30.15 in 10.0 mi North 18.4 mph 26.5 mph N/A   Clear
9:53 AM 59.0 °F 42.1 °F 53% 30.17 in 10.0 mi NNW 17.3 mph 26.5 mph N/A   Clear
10:53 AM 62.1 °F 41.0 °F 46% 30.17 in 10.0 mi NNW 15.0 mph - N/A   Clear
11:53 AM 64.0 °F 39.0 °F 40% 30.15 in 10.0 mi NNW 16.1 mph 23.0 mph N/A   Clear
12:53 PM 66.0 °F 36.0 °F 33% 30.13 in 10.0 mi NNW 17.3 mph 25.3 mph N/A   Clear
1:53 PM 66.9 °F 35.1 °F 31% 30.12 in 10.0 mi North 19.6 mph 27.6 mph N/A   Clear
2:53 PM 66.0 °F 34.0 °F 30% 30.11 in 10.0 mi NNW 17.3 mph 25.3 mph N/A   Clear
3:53 PM 66.0 °F 37.0 °F 34% 30.12 in 10.0 mi NNW 17.3 mph 24.2 mph N/A   Clear
4:53 PM 63.0 °F 37.0 °F 38% 30.13 in 10.0 mi NW 16.1 mph - N/A   Clear
5:53 PM 57.9 °F 39.0 °F 49% 30.14 in 10.0 mi NNW 15.0 mph 19.6 mph N/A   Clear
6:53 PM 57.0 °F 39.0 °F 51% 30.17 in 10.0 mi NNW 12.7 mph - N/A   Clear
7:53 PM 55.9 °F 41.0 °F 57% 30.18 in 10.0 mi NNW 11.5 mph - N/A   Clear
8:53 PM 55.0 °F 41.0 °F 59% 30.20 in 10.0 mi North 12.7 mph - N/A   Clear
9:53 PM 54.0 °F 39.9 °F 59% 30.22 in 10.0 mi North 10.4 mph - N/A   Clear
10:53 PM 52.0 °F 39.9 °F 63% 30.22 in 10.0 mi North 5.8 mph - N/A   Clear
11:53 PM 51.1 °F 39.9 °F 66% 30.23 in 10.0 mi North 6.9 mph - N/A   Clear